Weather History for Soldotna, AK

Change the Weather History Date:

Saturday, June 8, 2013

  Actual Average Record
Temperature  
Mean Temperature 56 °F -  
Max Temperature 69 °F 56 °F 69 °F (1960)
Min Temperature 42 °F 41 °F 32 °F (1959)
Degree Days  
Heating Degree Days 10    
Growing Degree Days 6 (Base 50)    
Moisture  
Dew Point 40 °F    
Average Humidity 53    
Maximum Humidity 76    
Minimum Humidity 38    
Precipitation  
Precipitation 0.00 in - - ()
Sea Level Pressure  
Sea Level Pressure 30.03 in    
Wind  
Wind Speed 5 mph (West)    
Max Wind Speed 15 mph    
Max Gust Speed -    
Visibility 10 miles    
Events      
Averages and records for this station are not official NWS values.
T = Trace of Precipitation, MM = Missing Value Source: NWS Daily Summary

Daily Weather History Graph

Daily Weather History Graph

Search for Another Location

Airport:

Trip Planner

Search our weather history database for the weather conditions in past years. The results will help you decide how hot, cold, wet, or windy it might be!

Date:

Astronomy

Jun. 08, 2013 Rise Set
Actual Time 4:39 AM AKDT 11:28 PM AKDT
Civil Twilight 2:54 AM AKDT 1:15 AM AKDT
Nautical Twilight Sun does not rise Sun does not rise
Astronomical Twilight Sun does not rise Sun does not rise
Moon 5:18 AM AKDT (6/8) 11:13 PM AKDT (6/8)
Length of Visible Light 22h 21m
Length of Day
18h 49m
New Moon, 0% of the Moon is Illuminated
Jun 8
New Moon
Jun 16
First Quarter
Jun 23
Full
Jun 29
Last Quarter
Jul 7
New

Hourly Weather History & Observations

Time (AKDT) Temp. Windchill Dew Point Humidity Pressure Visibility Wind Dir Wind Speed Gust Speed Precip Events Conditions
12:16 AM 53.6 °F - 37.4 °F 54% 29.92 in 10.0 mi WSW 5.8 mph - N/A   Overcast
12:36 AM 53.6 °F - 37.4 °F 54% 29.93 in 10.0 mi WSW 4.6 mph - N/A   Mostly Cloudy
12:56 AM 53.6 °F - 37.4 °F 54% 29.93 in 10.0 mi WSW 3.5 mph - N/A   Partly Cloudy
1:16 AM 53.6 °F - 37.4 °F 54% 29.95 in 10.0 mi Calm Calm - N/A   Partly Cloudy
1:36 AM 51.8 °F - 37.4 °F 58% 29.95 in 10.0 mi WNW 3.5 mph - N/A   Mostly Cloudy
1:56 AM 50.0 °F - 37.4 °F 62% 29.95 in 10.0 mi Calm Calm - N/A   Mostly Cloudy
2:16 AM 48.2 °F - 37.4 °F 66% 29.96 in 10.0 mi Calm Calm - N/A   Partly Cloudy
2:36 AM 48.2 °F - 37.4 °F 66% 29.96 in 10.0 mi Calm Calm - N/A   Partly Cloudy
2:56 AM 46.4 °F - 37.4 °F 71% 29.97 in 10.0 mi Calm Calm - N/A   Clear
3:16 AM 46.4 °F - 37.4 °F 71% 29.98 in 10.0 mi Calm Calm - N/A   Mostly Cloudy
3:36 AM 44.6 °F - 35.6 °F 71% 29.98 in 10.0 mi Calm Calm - N/A   Overcast
3:56 AM 44.6 °F - 35.6 °F 71% 29.98 in 10.0 mi Calm Calm - N/A   Overcast
4:16 AM 44.6 °F - 35.6 °F 71% 29.98 in 10.0 mi Calm Calm - N/A   Overcast
4:36 AM 42.8 °F 41.1 °F 35.6 °F 76% 29.98 in 10.0 mi East 3.5 mph - N/A   Mostly Cloudy
4:56 AM 42.8 °F - 35.6 °F 76% 29.99 in 10.0 mi Calm Calm - N/A   Scattered Clouds
5:16 AM 42.8 °F - 35.6 °F 76% 29.99 in 10.0 mi Calm Calm - N/A   Overcast
5:36 AM 44.6 °F - 37.4 °F 76% 29.99 in 10.0 mi Calm Calm - N/A   Overcast
5:56 AM 44.6 °F - 37.4 °F 76% 29.99 in 10.0 mi Calm Calm - N/A   Overcast
6:16 AM 46.4 °F - 37.4 °F 71% 30.00 in 10.0 mi Calm Calm - N/A   Overcast
6:36 AM 48.2 °F - 37.4 °F 66% 30.00 in 10.0 mi Calm Calm - N/A   Overcast
6:56 AM 46.4 °F - 37.4 °F 71% 30.01 in 10.0 mi Calm Calm - N/A   Overcast
7:16 AM 48.2 °F - 39.2 °F 71% 30.01 in 10.0 mi Calm Calm - N/A   Overcast
7:36 AM 50.0 °F - 39.2 °F 66% 30.01 in 10.0 mi Calm Calm - N/A   Overcast
7:56 AM 51.8 °F - 39.2 °F 62% 30.02 in 10.0 mi Calm Calm - N/A   Overcast
8:16 AM 51.8 °F - 39.2 °F 62% 30.02 in 10.0 mi WNW 3.5 mph - N/A   Scattered Clouds
8:36 AM 53.6 °F - 39.2 °F 58% 30.02 in 10.0 mi Calm Calm - N/A   Clear
8:56 AM 53.6 °F - 39.2 °F 58% 30.02 in 10.0 mi West 4.6 mph - N/A   Clear
9:16 AM 55.4 °F - 37.4 °F 51% 30.02 in 10.0 mi WNW 5.8 mph - N/A   Partly Cloudy
9:36 AM 55.4 °F - 37.4 °F 51% 30.03 in 10.0 mi West 8.1 mph - N/A   Clear
9:56 AM 55.4 °F - 39.2 °F 54% 30.03 in 10.0 mi NW 4.6 mph - N/A   Clear
10:16 AM 57.2 °F - 39.2 °F 51% 30.03 in 10.0 mi WNW 6.9 mph - N/A   Clear
10:36 AM 57.2 °F - 39.2 °F 51% 30.03 in 10.0 mi WNW 9.2 mph - N/A   Clear
10:56 AM 57.2 °F - 39.2 °F 51% 30.04 in 10.0 mi WNW 6.9 mph - N/A   Clear
11:16 AM 57.2 °F - 39.2 °F 51% 30.04 in 10.0 mi West 9.2 mph - N/A   Clear
11:36 AM 57.2 °F - 39.2 °F 51% 30.04 in 10.0 mi NW 8.1 mph - N/A   Clear
11:56 AM 60.8 °F - 41.0 °F 48% 30.04 in 10.0 mi NW 6.9 mph - N/A   Clear
12:16 PM 60.8 °F - 41.0 °F 48% 30.04 in 10.0 mi NW 6.9 mph - N/A   Clear
12:36 PM 60.8 °F - 41.0 °F 48% 30.04 in 10.0 mi West 9.2 mph - N/A   Clear
12:56 PM 60.8 °F - 41.0 °F 48% 30.05 in 10.0 mi WNW 10.4 mph - N/A   Clear
1:16 PM 62.6 °F - 42.8 °F 48% 30.05 in 10.0 mi WNW 9.2 mph - N/A   Clear
1:36 PM 62.6 °F - 41.0 °F 45% 30.05 in 10.0 mi West 9.2 mph - N/A   Clear
1:56 PM 62.6 °F - 41.0 °F 45% 30.04 in 10.0 mi WNW 8.1 mph - N/A   Clear
2:16 PM 64.4 °F - 42.8 °F 45% 30.04 in 10.0 mi West 5.8 mph - N/A   Clear
2:36 PM 64.4 °F - 42.8 °F 45% 30.04 in 10.0 mi West 6.9 mph - N/A   Clear
2:56 PM 66.2 °F - 42.8 °F 43% 30.04 in 10.0 mi West 9.2 mph - N/A   Clear
3:16 PM 66.2 °F - 44.6 °F 46% 30.04 in 10.0 mi West 9.2 mph - N/A   Clear
3:36 PM 68.0 °F - 44.6 °F 43% 30.04 in 10.0 mi West 9.2 mph - N/A   Clear
3:56 PM 69.8 °F - 44.6 °F 40% 30.04 in 10.0 mi West 11.5 mph - N/A   Clear
4:16 PM 69.8 °F - 44.6 °F 40% 30.04 in 10.0 mi West 12.7 mph - N/A   Clear
4:36 PM 69.8 °F - 44.6 °F 40% 30.04 in 10.0 mi West 12.7 mph - N/A   Clear
4:56 PM 69.8 °F - 44.6 °F 40% 30.04 in 10.0 mi West 15.0 mph - N/A   Clear
5:16 PM 68.0 °F - 42.8 °F 40% 30.05 in 10.0 mi West 13.8 mph - N/A   Clear
5:36 PM 68.0 °F - 42.8 °F 40% 30.05 in 10.0 mi West 11.5 mph - N/A   Clear
5:56 PM 68.0 °F - 42.8 °F 40% 30.05 in 10.0 mi West 12.7 mph - N/A   Clear
6:16 PM 69.8 °F - 42.8 °F 38% 30.05 in 10.0 mi WNW 12.7 mph - N/A   Clear
6:36 PM 69.8 °F - 42.8 °F 38% 30.05 in 10.0 mi West 11.5 mph - N/A   Clear
6:56 PM 69.8 °F - 42.8 °F 38% 30.05 in 10.0 mi West 12.7 mph - N/A   Clear
7:16 PM 69.8 °F - 42.8 °F 38% 30.05 in 10.0 mi West 11.5 mph - N/A   Clear
7:36 PM 68.0 °F - 42.8 °F 40% 30.05 in 10.0 mi WNW 10.4 mph - N/A   Clear
7:56 PM 66.2 °F - 41.0 °F 40% 30.05 in 10.0 mi West 13.8 mph - N/A   Clear
8:16 PM 66.2 °F - 42.8 °F 43% 30.06 in 10.0 mi West 11.5 mph - N/A   Clear
8:36 PM 66.2 °F - 41.0 °F 40% 30.06 in 10.0 mi West 10.4 mph - N/A   Clear
8:56 PM 66.2 °F - 42.8 °F 43% 30.06 in 10.0 mi West 8.1 mph - N/A   Clear
9:16 PM 66.2 °F - 42.8 °F 43% 30.06 in 10.0 mi WSW 8.1 mph - N/A   Clear
9:36 PM 64.4 °F - 41.0 °F 42% 30.07 in 10.0 mi West 9.2 mph - N/A   Clear
9:56 PM 64.4 °F - 41.0 °F 42% 30.07 in 10.0 mi WSW 4.6 mph - N/A   Clear
10:16 PM 62.6 °F - 39.2 °F 42% 30.08 in 10.0 mi SW 4.6 mph - N/A   Clear
10:36 PM 62.6 °F - 39.2 °F 42% 30.08 in 10.0 mi WSW 3.5 mph - N/A   Clear
10:56 PM 60.8 °F - 39.2 °F 45% 30.09 in 10.0 mi Calm Calm - N/A   Clear
11:16 PM 59.0 °F - 41.0 °F 51% 30.10 in 10.0 mi Calm Calm - N/A   Clear
11:36 PM 55.4 °F - 41.0 °F 58% 30.10 in 10.0 mi Calm Calm - N/A   Clear
11:56 PM 53.6 °F - 39.2 °F 58% 30.10 in 10.0 mi Calm Calm - N/A   Clear